ICO G1

Last updated on Tue Oct 15 2024 00:02:38 GMT+0000 (Coordinated Universal Time)

1 32763U 08016A 24288.19840920 -.00000170 00000+0 00000+0 0 9990 2 32763 5.0875 35.7669 0002267 159.5282 166.5352 1.00271174 60415
UTC large
Height (km)
Speed (km/s)
/
Latitude / Longitude
Inclination (degrees)
Orbital Period (minutes)
Azimuth
Elevation
Range (km)
Doppler Factor

Next 0 passes for location: London (51.5072 / 0.1276)

Sorry there are no passes over London.